Miscellaneous Local Product
Issued by NWS North Platte, NE

Home | Current Version | Previous Version | Text Only | Print | Product List | Glossary On
Versions: 1 2 3 4 5 6 7 8 9 10 11 12 13 14 15 16 17 18 19 20 21 22 23 24 25 26 27 28 29 30 31 32 33 34 35 36 37 38 39 40 41 42 43 44 45 46 47 48 49 50
000
AXUS43 KLBF 261810
MISLBF


WESTERN AND NORTH CENTRAL NEBRASKA HOURLY WEATHER ROUNDUP
NATIONAL WEATHER SERVICE NORTH PLATTE NE
1200 PM CST MON JAN 26 2015

***STATIONS NOT REPORTING VARIABLES SUCH AS SKY/WEATHER OR
PRESSURE ARE PROVIDED BY THE NEBRASKA DEPARTMENT OF
ROADS...RAWS...AND APRS NETWORKS...AND ARE NOT UNDER
NATIONAL WEATHER SERVICE QUALITY CONTROL***

...OBSERVATIONS IN AND NEAR THE EASTERN PANHANDLE OF NEBRASKA...

CITY           SKY/WX    TMP DP  RH WIND       PRES   REMARKS
PINE RIDGE     MOSUNNY   55  34  45 W10       30.11S
CHADRON        SUNNY     57  33  40 W17G24    30.12F
ALLIANCE       SUNNY     54  35  48 W14       30.15S
SIDNEY         SUNNY     61  30  31 NW16      30.20S
$$

...OBSERVATIONS IN NORTH CENTRAL NEBRASKA...

CITY           SKY/WX    TMP DP  RH WIND       PRES   REMARKS
VALENTINE      SUNNY     59  33  37 NW10      30.03F
THEDFORD       SUNNY     62  33  33 NW23G29   30.07F
AINSWORTH      SUNNY     56  33  41 NW20G26   30.04S
O`NEILL        SUNNY     55  37  49 NW16      30.00S
ORD            SUNNY     57  34  41 NW13      30.03R
BROKEN BOW     SUNNY     61  35  37 NW25G36   30.04R
$$

...OBSERVATIONS IN SOUTHWEST NEBRASKA AND FAR NORTHEAST COLORADO...

CITY           SKY/WX    TMP DP  RH WIND       PRES   REMARKS
WRAY           FAIR      63  29  28 W15       30.20S
HOLYOKE        FAIR      64  30  27 NW18      30.18S
IMPERIAL       SUNNY     62  29  28 NW24      30.15S
OGALLALA       SUNNY     60  32  35 NW17G23   30.14F
NORTH PLATTE   SUNNY     62  32  32 NW14      30.10F
MCCOOK         SUNNY     64  32  30 NW13      30.10F
LEXINGTON      SUNNY     57  35  42 NW20G25   30.06F
$$

...NORTH PLATTE AREA...

CITY           SKY/WX    TMP DP  RH WIND       PRES   REMARKS
AIRPORT        SUNNY     62  32  32 NW14      30.10F
$$

...SOME WEATHER OBSERVATIONS FROM AROUND THE REGION...

CITY           SKY/WX    TMP DP  RH WIND       PRES   REMARKS
DENVER         SUNNY     62  25  24 SW12      30.28R
LARAMIE        SUNNY     50  23  34 CALM      30.36F
CHEYENNE       SUNNY     62  19  19 NW24G32   30.28S
SCOTTSBLUFF    SUNNY     53  34  48 NW9       30.19F
RAPID CITY     MOSUNNY   65  29  25 NW16G24   30.07R
PIERRE         SUNNY     51  33  50 W15       30.00R
WINNER         FAIR      57  32  38 NW16      30.02R
SIOUX FALLS    MOSUNNY   45  37  73 NW20      29.89R
OMAHA          MOSUNNY   54  37  52 NW13      29.90S
GRAND ISLAND   SUNNY     58  33  39 NW16G23   30.03R
KANSAS CITY    MOSUNNY   49  34  56 W12       29.92F
WICHITA        SUNNY     61  35  37 W8        30.03F
HAYS           SUNNY     64  34  32 NW14      30.08F
LIBERAL        SUNNY     64  36  34 N18       30.21S
GOODLAND       SUNNY     62  31  31 N22       30.19S
$$



USA.gov is the U.S. government's official web portal to all federal, state and local government web resources and services.